Torna al catalogo

STARLINK-33798

AttivoComunicazioniVLEO
NORAD 63449·PAYLOAD·🇺🇸 United States

Lanciato Apr 4, 2025 da Vandenberg Space Force Base

Loading…

Prossimi Passaggi (prossime 24 ore)

TLE

AggiornatoSource: CelesTrak SupGP

Epoca: Sep 14, 2026, 20:42 UTC

1 63449C 25069S   26257.86298611 -.00014503  00000+0 -42867-3 0  2572
2 63449  53.1593 336.3065 0001109  89.2533 249.6426 15.34384815    17

Traccia STARLINK-33798 in tempo reale con AllMySat

Download on the App Store